Tracking 30995 objects as of 5-Jul-2025
HD Live streaming from Space Station
objects crossing your sky now

COSMOS 2251 DEB

Track COSMOS 2251 DEB now!
10-day predictions


NORAD ID: 34989
Int'l Code: 1993-036AFM
Perigee: 519.1 km
Apogee: 540.7 km
Inclination: 74.0 °
Period: 95.1 minutes
Semi major axis: 6900 km
RCS: 0.05 m2 (small)
Launch date: June 16, 1993
Source: Commonwealth of Independent States (former USSR) (CIS)
Launch site: PLESETSK MISSILE AND SPACE COMPLEX (PKMTR)

Note: This is SATELLITE DEBRIS
Your satellite tracking list
Your tracking list is empty




NASA's NSSDC Master Catalog

Two Line Element Set (TLE):
1 34989U 93036AFM 25186.49455369  .00043235  00000-0  23339-2 0  9990
2 34989  74.0057 213.6530 0015637 354.2383   5.8628 15.14423800857296
Source of the keplerian elements: AFSPC